SCP
0 0 0 0 0 0 0 0 0 0 0 0 0 0 0 0 0 0 0 0 0 0 0 0 0 0 0 0 0 0 0 0 0 0 0 0 0 0 0 0 0 0 0
0 0 0 0 0 0 0 0 0 0 0 0 0 0 0 0 0 0 0 0 0 0 0 0 0 0 0 0 0 0 0 0 0 0 0 0 0 0 0 0 0 0 0
0 0 0 0 0 0 0 0 0 0 0 0 0 0 0 0 0 0 0 0 0 0 0 0 0 0 0 0 0 0 0 0 0 0 0 0 0 0 0 0 0 0 0
0 0 0 0 0 0 0 0 0 0 0 0 0 0 0 0 0 0 0 0 0 0 0 0 0 0 0 0 0 0 0 0 0 0 0 0 0 0 0 0 0 0 0
0 0 0 0 0 0 0 0 0 0 0 0 0 0 0 0 0 0 0 0 0 0 0 0 0 0 0 0 0 0 0 0 0 0 0 0 0 0 0 0 0 0 0
0 0 0 0 0 0 0 0 0 0 0 0 0 0 0 0 0 0 0 0 0 0 0 0 0 0 0 0 0 0 0 0 0 0 0 0 0 0 0 0 0 0 0
0 0 0 0 0 0 0 0 0 0 0 0 0 0 0 0 0 0 0 0 0 0 0 0 0 0 0 0 0 0 0 0 0 0 0 0 0 0 0 0 0 0 0
0 0 0 0 0 0 0 0 0 0 0 0 0 0 0 0 0 0 0 0 0 0 0 0 0 0 0 0 0 0 0 -0 0 -0 -0 0 0 0 0 0 0 0 0
0 0 0 0 0 0 0 0 0 0 0 0 0 0 0 0 0 0 0 0 0 0 0 0 0 0 0 0 0 0 0 0 -0 0 -0 -0 -0 -0 -0 0 0 0 0
0 0 0 0 0 0 0 0 0 0 0 0 0 0 0 0 0 0 0 0 0 0 0 0 0 0 0 0 0 0 0 0 0 0 -0 -0 -0 -0 -0 -0 0 0 0
0 0 0 0 0 0 0 0 0 0 0 0 0 0 0 0 0 0 0 0 0 0 0 0 0 0 0 0 0 0 0 0 0 0 0 -0 -0 -0 -0 -0 -0 0 0
0 0 0 0 0 0 0 0 0 0 0 0 0 0 0 0 0 0 0 0 0 0 0 0 0 0 0 0 0 0 0 -0 0 0 0 -0 -0 -0 -0 -0 -0 0 0
0 0 0 0 0 0 0 0 0 0 0 0 0 0 0 0 0 0 0 0 0 0 0 0 0 0 0 0 0 0 0 0 0 0 0 0 0 -0 -0 -0 0 0 0
0 0 0 0 0 0 0 0 0 0 0 0 0 0 0 0 0 0 0 0 0 0 0 0 0 0 0 0 0 0 0 0 0 0 0 0 0 0 0 0 0 0 0
0 0 0 0 0 0 0 0 0 0 0 0 0 0 0 0 0 0 0 0 0 0 0 0 0 0 0 0 0 0 0 0 0 0 0 0 0 0 0 0 0 0 0
0 0 0 0 0 0 0 0 0 0 0 0 0 0 0 0 0 0 0 0 0 0 0 0 0 0 0 0 0 0 0 0 0 0 0 0 0 0 0 0 0 0 0
0 0 0 0 0 0 0 0 0 0 0 0 0 0 0 0 0 0 0 0 0 0 0 0 0 0 0 0 0 0 0 0 0 0 0 0 0 0 0 0 0 0 0
0 0 0 0 0 0 0 0 0 0 0 0 0 0 0 0 0 0 0 0 0 0 0 0 0 0 0 0 0 0 0 0 0 0 0 0 0 0 0 0 0 0 0
0 0 0 0 0 0 0 0 0 0 0 0 0 0 0 0 0 0 0 0 0 0 0 0 0 0 0 0 0 0 0 0 0 0 0 0 0 0 0 0 0 0 0
0 0 0 0 0 0 0 0 0 0 0 0 0 0 0 0 0 0 0 0 0 0 0 0 0 0 0 0 0 0 0 0 0 0 0 0 0 0 0 0 0 0 0
0 0 0 0 0 0 0 0 0 0 0 0 0 0 0 0 0 0 0 0 0 0 0 0 0 0 0 0 0 0 0 0 0 0 0 0 0 0 0 0 0 0 0
0 0 0 0 0 0 0 0 0 0 0 0 0 0 0 0 0 0 0 0 0 0 0 0 0 0 0 0 0 0 0 0 0 0 0 0 0 0 0 0 0 0 0
0 0 0 0 0 0 0 0 0 0 0 0 0 0 0 0 0 0 0 0 0 0 0 0 0 0 0 0 0 0 0 0 0 0 0 0 0 0 0 0 0 0 0
0 0 0 0 0 0 0 0 0 0 0 0 0 0 0 0 0 0 0 0 0 0 0 0 0 0 0 0 0 0 0 0 0 0 0 0 0 0 0 0 0 0 0
0 0 0 0 0 0 0 0 0 0 0 0 0 0 -0 -0 -0 -0 0 0 0 0 0 0 0 -0 0 0 0 0 0 0 0 0 0 0 0 0 0 0 0 0 0
0 0 0 0 0 0 0 0 0 0 0 0 0 0 0 0 0 0 0 0 0 0 -0 -0 -0 -0 -0 -0 -0 -0 -0 -0 0 0 0 0 0 0 0 0 0 0 0
Wind_Speed_500mb
27 25 24 22 21 20 19 19 18 16 15 14 12 10 8 7 6 5 5 4 7 7 9 13 14 18 22 23 25 26 29 34 38 40 42 46 51 51 49 64 69 75 81
27 25 24 23 21 20 19 18 17 17 17 16 14 12 11 10 7 5 4 3 3 5 6 9 10 13 18 19 20 21 24 28 32 35 36 39 44 48 49 54 65 72 77
31 29 27 25 23 21 20 19 18 18 18 17 15 15 13 12 9 8 5 3 2 2 3 5 6 8 12 16 15 17 21 24 28 32 36 40 44 48 51 49 59 68 76
36 34 31 29 26 24 22 21 20 19 19 18 17 17 15 13 12 10 8 5 4 3 1 2 3 4 7 11 12 11 16 19 23 28 33 39 44 48 55 60 56 64 73
39 35 32 31 30 28 26 24 23 21 21 21 21 19 17 16 15 13 11 9 8 6 5 4 2 2 2 4 8 8 10 14 18 24 32 36 42 49 56 57 56 55 68
39 35 34 33 31 29 28 26 25 24 23 23 21 21 20 19 19 17 15 15 13 12 11 9 8 5 4 5 4 3 5 8 14 22 31 36 41 45 48 52 55 59 61
35 36 36 35 32 30 29 29 27 25 24 23 23 24 23 23 23 22 20 19 18 17 15 15 14 13 10 10 6 4 1 5 10 17 24 30 36 39 42 43 44 50 51
32 34 36 37 34 34 33 31 29 28 26 25 25 25 26 25 26 25 25 25 24 22 21 21 18 18 16 15 15 11 9 6 4 10 18 22 27 31 34 35 35 37 40
32 32 33 34 33 34 33 31 30 29 28 27 26 28 28 27 29 29 30 30 30 27 25 25 24 22 25 21 21 19 16 12 8 6 10 13 17 21 23 25 23 27 29
29 27 28 29 29 29 29 30 30 30 29 30 31 31 30 29 33 33 35 35 36 32 31 30 28 26 28 29 28 24 25 20 17 11 9 10 11 10 13 16 19 21 26
28 27 26 24 23 23 26 28 29 31 32 33 33 32 33 34 35 37 38 41 38 36 36 33 29 32 31 34 34 34 28 31 26 22 15 13 12 13 8 8 14 18 21
22 20 19 18 18 19 20 22 26 29 32 33 35 35 35 38 38 39 42 45 43 43 41 36 34 36 38 37 41 40 35 41 36 33 29 21 18 17 18 14 11 17 20
20 18 16 14 13 13 14 16 20 23 25 27 32 34 34 37 40 40 46 48 49 50 44 41 41 43 44 46 44 44 50 44 46 43 38 32 29 25 23 23 23 19 21
23 19 14 10 6 2 3 7 10 12 16 19 21 24 26 32 38 40 47 49 51 54 50 48 46 46 52 52 52 52 54 54 50 51 46 44 43 38 32 30 29 30 29
23 19 15 12 9 7 7 9 12 14 18 23 24 26 29 32 28 36 44 51 53 53 52 59 54 55 57 59 61 60 59 63 62 54 56 52 52 51 45 43 39 37 36
13 9 8 8 10 12 16 18 21 25 28 28 30 35 34 36 38 39 42 48 51 54 61 69 68 67 69 64 66 67 65 67 65 61 59 61 59 58 57 54 54 50 46
10 16 21 26 29 32 36 38 35 38 40 38 39 40 42 43 42 41 43 50 52 54 63 69 73 71 72 71 71 68 74 65 68 66 65 67 64 63 63 64 63 62 59
32 35 37 40 41 41 42 44 46 48 49 42 42 44 44 45 45 46 45 49 52 54 62 69 72 76 68 72 75 70 75 73 69 68 71 69 69 67 69 71 70 71 67
31 31 32 33 34 35 39 42 44 46 48 49 48 47 42 43 47 47 47 48 52 55 60 63 64 66 69 69 69 66 69 73 73 69 68 72 71 71 74 75 74 73 73
31 32 33 35 36 37 39 41 44 46 49 50 50 49 48 47 46 42 40 42 45 46 50 60 63 64 65 64 62 63 61 60 63 65 70 66 70 72 74 75 75 75 76
31 31 32 33 34 36 38 39 42 45 47 49 50 48 48 46 47 46 40 38 39 41 42 44 48 55 59 60 60 59 60 59 57 58 57 62 73 69 66 72 75 73 73
28 29 28 28 29 31 33 34 36 39 41 44 46 44 38 38 37 39 39 37 35 37 37 39 42 41 43 44 48 55 59 62 59 55 53 53 58 67 68 66 66 68 70
24 24 25 25 26 26 25 24 25 26 28 30 33 34 28 25 25 28 30 32 33 32 31 31 32 33 33 35 37 40 47 50 54 57 56 52 51 55 61 68 70 67 68
28 27 27 27 25 23 21 19 18 16 16 18 21 23 24 19 21 21 20 21 22 24 24 23 24 28 29 31 34 35 38 41 43 46 46 50 53 54 56 59 65 73 74
31 30 30 26 24 21 19 17 17 18 19 20 19 17 17 16 15 14 15 16 16 19 21 23 24 27 28 27 28 31 34 36 37 39 46 48 50 52 54 55 58 63 67
32 31 30 28 26 25 25 22 21 21 21 21 20 19 20 21 20 19 18 18 19 20 21 25 27 30 32 30 30 29 30 33 37 36 36 44 52 54 56 59 57 58 61
Wind_Direction_500mb
210 213 214 216 218 219 219 219 218 218 217 211 209 205 199 188 182 169 138 118 94 78 68 67 59 63 63 56 57 59 59 54 47 40 36 30 31 32 33 33 38 40 41
207 210 212 215 220 223 225 224 221 220 219 217 213 209 207 207 202 199 169 137 106 96 76 73 64 67 67 64 63 68 64 57 50 39 33 34 40 35 35 38 38 43 43
207 207 212 217 220 224 226 225 226 228 226 225 220 217 216 217 216 215 213 197 180 130 109 92 71 75 78 77 69 67 64 51 43 41 36 35 37 41 46 44 43 45 45
207 208 210 213 216 220 222 225 229 229 232 231 228 226 225 226 228 227 229 233 231 211 205 125 78 65 72 84 79 70 65 47 36 33 39 42 41 39 40 42 43 44 48
210 212 213 214 214 218 222 226 227 228 230 231 232 231 231 233 234 235 239 241 248 242 243 250 218 310 34 80 82 65 53 44 28 26 34 43 45 40 38 39 42 44 47
213 214 217 219 220 221 224 228 229 228 230 234 235 236 234 237 239 242 244 241 243 246 244 245 252 241 266 271 124 89 43 34 20 24 29 37 45 44 39 37 37 40 41
212 215 219 221 224 226 229 232 232 234 235 237 238 240 241 241 244 246 248 252 252 250 249 249 247 251 250 265 243 239 277 353 20 15 33 37 40 45 44 41 36 39 39
211 215 220 222 223 228 231 233 234 236 238 239 241 242 243 244 248 251 253 255 255 256 258 257 251 255 248 255 257 244 252 269 344 7 15 27 43 42 43 41 38 40 41
209 214 219 222 225 230 234 237 239 241 243 247 248 249 250 248 252 253 255 257 260 259 259 261 261 255 255 249 252 256 251 257 270 323 346 10 33 42 40 36 33 34 38
205 208 213 218 222 228 233 237 238 241 242 245 247 250 251 251 254 255 257 259 261 261 260 259 261 259 262 259 255 253 257 254 257 253 286 324 350 25 29 22 18 20 22
194 199 207 213 217 221 226 233 236 239 242 246 250 251 254 255 256 259 261 263 265 265 262 261 261 263 257 261 262 260 263 260 255 255 247 273 302 317 330 350 349 357 3
189 194 201 205 215 221 230 236 239 243 248 251 256 256 257 259 260 261 262 264 264 263 263 263 260 259 259 257 258 260 254 264 262 257 252 252 268 286 296 296 305 322 333
162 169 177 183 192 209 224 236 244 251 257 262 265 267 265 265 265 264 263 265 267 268 267 266 259 256 258 259 259 260 261 255 265 260 257 258 258 261 272 285 290 295 305
136 134 134 140 139 182 277 282 282 284 285 279 280 286 279 265 261 259 261 263 263 266 268 264 263 263 260 259 258 259 260 260 258 262 260 258 260 260 259 268 277 286 289
115 105 92 77 57 29 348 317 309 298 292 294 291 280 282 283 284 271 265 261 262 264 264 262 258 253 258 260 262 261 261 263 262 262 265 264 263 263 263 265 264 270 279
97 76 40 2 342 328 311 299 296 289 284 283 285 290 289 289 287 282 275 271 266 262 259 261 260 257 255 260 261 264 262 263 264 266 266 264 264 266 267 265 267 266 265
302 296 296 296 296 295 291 286 286 289 291 291 291 289 288 290 287 283 280 276 270 263 262 263 264 264 266 264 266 259 266 262 266 263 263 265 264 264 265 267 268 268 267
281 283 286 290 292 291 291 291 292 293 294 294 294 294 294 293 291 291 287 277 272 266 265 267 269 273 269 267 270 270 267 270 265 263 263 263 265 265 264 264 265 269 270
280 284 286 288 289 290 290 291 293 295 296 297 298 295 293 290 290 292 291 288 282 277 276 274 275 276 280 283 285 282 278 277 272 266 264 264 262 263 264 264 265 266 269
283 286 289 293 295 296 298 300 301 301 302 302 301 301 300 299 298 299 295 291 289 285 278 277 280 281 283 285 286 289 289 284 282 276 265 265 264 264 263 264 264 266 266
284 285 286 287 288 292 296 298 299 299 298 296 297 297 296 295 296 296 294 289 286 286 288 288 288 282 280 281 283 284 285 286 286 285 281 268 262 267 268 266 265 265 266
286 286 288 291 293 296 298 299 301 303 304 303 302 300 297 290 285 290 296 296 292 287 283 284 287 288 291 292 289 283 281 283 285 286 287 283 275 265 265 266 265 264 264
283 283 286 287 291 292 294 300 309 315 320 318 311 304 305 299 295 295 297 298 296 295 295 291 290 291 290 290 289 290 291 290 288 287 286 285 282 276 268 265 264 266 267
275 280 284 286 285 286 289 293 302 312 328 337 337 323 311 296 295 288 292 303 306 307 304 302 305 306 303 298 293 293 294 294 293 294 293 288 287 283 278 273 269 265 264
272 273 274 269 264 266 274 281 286 297 312 321 328 332 334 335 330 318 322 329 327 325 325 319 317 311 301 292 288 288 290 294 291 288 291 290 289 288 284 280 277 272 268
268 270 267 260 262 268 271 273 278 284 293 299 307 317 325 330 331 332 337 345 349 350 345 338 335 329 326 321 311 295 286 282 284 291 292 286 287 287 287 285 283 281 278
Wind_Speed_850mb
27 25 24 22 21 20 19 19 18 16 15 14 12 10 8 7 6 5 5 4 7 7 9 13 14 18 22 23 25 26 29 34 38 40 42 46 51 51 49 64 69 75 81
27 25 24 23 21 20 19 18 17 17 17 16 14 12 11 10 7 5 4 3 3 5 6 9 10 13 18 19 20 21 24 28 32 35 36 39 44 48 49 54 65 72 77
31 29 27 25 23 21 20 19 18 18 18 17 15 15 13 12 9 8 5 3 2 2 3 5 6 8 12 16 15 17 21 24 28 32 36 40 44 48 51 49 59 68 76
36 34 31 29 26 24 22 21 20 19 19 18 17 17 15 13 12 10 8 5 4 3 1 2 3 4 7 11 12 11 16 19 23 28 33 39 44 48 55 60 56 64 73
39 35 32 31 30 28 26 24 23 21 21 21 21 19 17 16 15 13 11 9 8 6 5 4 2 2 2 4 8 8 10 14 18 24 32 36 42 49 56 57 56 55 68
39 35 34 33 31 29 28 26 25 24 23 23 21 21 20 19 19 17 15 15 13 12 11 9 8 5 4 5 4 3 5 8 14 22 31 36 41 45 48 52 55 59 61
35 36 36 35 32 30 29 29 27 25 24 23 23 24 23 23 23 22 20 19 18 17 15 15 14 13 10 10 6 4 1 5 10 17 24 30 36 39 42 43 44 50 51
32 34 36 37 34 34 33 31 29 28 26 25 25 25 26 25 26 25 25 25 24 22 21 21 18 18 16 15 15 11 9 6 4 10 18 22 27 31 34 35 35 37 40
32 32 33 34 33 34 33 31 30 29 28 27 26 28 28 27 29 29 30 30 30 27 25 25 24 22 25 21 21 19 16 12 8 6 10 13 17 21 23 25 23 27 29
29 27 28 29 29 29 29 30 30 30 29 30 31 31 30 29 33 33 35 35 36 32 31 30 28 26 28 29 28 24 25 20 17 11 9 10 11 10 13 16 19 21 26
28 27 26 24 23 23 26 28 29 31 32 33 33 32 33 34 35 37 38 41 38 36 36 33 29 32 31 34 34 34 28 31 26 22 15 13 12 13 8 8 14 18 21
22 20 19 18 18 19 20 22 26 29 32 33 35 35 35 38 38 39 42 45 43 43 41 36 34 36 38 37 41 40 35 41 36 33 29 21 18 17 18 14 11 17 20
20 18 16 14 13 13 14 16 20 23 25 27 32 34 34 37 40 40 46 48 49 50 44 41 41 43 44 46 44 44 50 44 46 43 38 32 29 25 23 23 23 19 21
23 19 14 10 6 2 3 7 10 12 16 19 21 24 26 32 38 40 47 49 51 54 50 48 46 46 52 52 52 52 54 54 50 51 46 44 43 38 32 30 29 30 29
23 19 15 12 9 7 7 9 12 14 18 23 24 26 29 32 28 36 44 51 53 53 52 59 54 55 57 59 61 60 59 63 62 54 56 52 52 51 45 43 39 37 36
13 9 8 8 10 12 16 18 21 25 28 28 30 35 34 36 38 39 42 48 51 54 61 69 68 67 69 64 66 67 65 67 65 61 59 61 59 58 57 54 54 50 46
10 16 21 26 29 32 36 38 35 38 40 38 39 40 42 43 42 41 43 50 52 54 63 69 73 71 72 71 71 68 74 65 68 66 65 67 64 63 63 64 63 62 59
32 35 37 40 41 41 42 44 46 48 49 42 42 44 44 45 45 46 45 49 52 54 62 69 72 76 68 72 75 70 75 73 69 68 71 69 69 67 69 71 70 71 67
31 31 32 33 34 35 39 42 44 46 48 49 48 47 42 43 47 47 47 48 52 55 60 63 64 66 69 69 69 66 69 73 73 69 68 72 71 71 74 75 74 73 73
31 32 33 35 36 37 39 41 44 46 49 50 50 49 48 47 46 42 40 42 45 46 50 60 63 64 65 64 62 63 61 60 63 65 70 66 70 72 74 75 75 75 76
31 31 32 33 34 36 38 39 42 45 47 49 50 48 48 46 47 46 40 38 39 41 42 44 48 55 59 60 60 59 60 59 57 58 57 62 73 69 66 72 75 73 73
28 29 28 28 29 31 33 34 36 39 41 44 46 44 38 38 37 39 39 37 35 37 37 39 42 41 43 44 48 55 59 62 59 55 53 53 58 67 68 66 66 68 70
24 24 25 25 26 26 25 24 25 26 28 30 33 34 28 25 25 28 30 32 33 32 31 31 32 33 33 35 37 40 47 50 54 57 56 52 51 55 61 68 70 67 68
28 27 27 27 25 23 21 19 18 16 16 18 21 23 24 19 21 21 20 21 22 24 24 23 24 28 29 31 34 35 38 41 43 46 46 50 53 54 56 59 65 73 74
31 30 30 26 24 21 19 17 17 18 19 20 19 17 17 16 15 14 15 16 16 19 21 23 24 27 28 27 28 31 34 36 37 39 46 48 50 52 54 55 58 63 67
32 31 30 28 26 25 25 22 21 21 21 21 20 19 20 21 20 19 18 18 19 20 21 25 27 30 32 30 30 29 30 33 37 36 36 44 52 54 56 59 57 58 61
Wind_Direction_850mb
210 213 214 216 218 219 219 219 218 218 217 211 209 205 199 188 182 169 138 118 94 78 68 67 59 63 63 56 57 59 59 54 47 40 36 30 31 32 33 33 38 40 41
207 210 212 215 220 223 225 224 221 220 219 217 213 209 207 207 202 199 169 137 106 96 76 73 64 67 67 64 63 68 64 57 50 39 33 34 40 35 35 38 38 43 43
207 207 212 217 220 224 226 225 226 228 226 225 220 217 216 217 216 215 213 197 180 130 109 92 71 75 78 77 69 67 64 51 43 41 36 35 37 41 46 44 43 45 45
207 208 210 213 216 220 222 225 229 229 232 231 228 226 225 226 228 227 229 233 231 211 205 125 78 65 72 84 79 70 65 47 36 33 39 42 41 39 40 42 43 44 48
210 212 213 214 214 218 222 226 227 228 230 231 232 231 231 233 234 235 239 241 248 242 243 250 218 310 34 80 82 65 53 44 28 26 34 43 45 40 38 39 42 44 47
213 214 217 219 220 221 224 228 229 228 230 234 235 236 234 237 239 242 244 241 243 246 244 245 252 241 266 271 124 89 43 34 20 24 29 37 45 44 39 37 37 40 41
212 215 219 221 224 226 229 232 232 234 235 237 238 240 241 241 244 246 248 252 252 250 249 249 247 251 250 265 243 239 277 353 20 15 33 37 40 45 44 41 36 39 39
211 215 220 222 223 228 231 233 234 236 238 239 241 242 243 244 248 251 253 255 255 256 258 257 251 255 248 255 257 244 252 269 344 7 15 27 43 42 43 41 38 40 41
209 214 219 222 225 230 234 237 239 241 243 247 248 249 250 248 252 253 255 257 260 259 259 261 261 255 255 249 252 256 251 257 270 323 346 10 33 42 40 36 33 34 38
205 208 213 218 222 228 233 237 238 241 242 245 247 250 251 251 254 255 257 259 261 261 260 259 261 259 262 259 255 253 257 254 257 253 286 324 350 25 29 22 18 20 22
194 199 207 213 217 221 226 233 236 239 242 246 250 251 254 255 256 259 261 263 265 265 262 261 261 263 257 261 262 260 263 260 255 255 247 273 302 317 330 350 349 357 3
189 194 201 205 215 221 230 236 239 243 248 251 256 256 257 259 260 261 262 264 264 263 263 263 260 259 259 257 258 260 254 264 262 257 252 252 268 286 296 296 305 322 333
162 169 177 183 192 209 224 236 244 251 257 262 265 267 265 265 265 264 263 265 267 268 267 266 259 256 258 259 259 260 261 255 265 260 257 258 258 261 272 285 290 295 305
136 134 134 140 139 182 277 282 282 284 285 279 280 286 279 265 261 259 261 263 263 266 268 264 263 263 260 259 258 259 260 260 258 262 260 258 260 260 259 268 277 286 289
115 105 92 77 57 29 348 317 309 298 292 294 291 280 282 283 284 271 265 261 262 264 264 262 258 253 258 260 262 261 261 263 262 262 265 264 263 263 263 265 264 270 279
97 76 40 2 342 328 311 299 296 289 284 283 285 290 289 289 287 282 275 271 266 262 259 261 260 257 255 260 261 264 262 263 264 266 266 264 264 266 267 265 267 266 265
302 296 296 296 296 295 291 286 286 289 291 291 291 289 288 290 287 283 280 276 270 263 262 263 264 264 266 264 266 259 266 262 266 263 263 265 264 264 265 267 268 268 267
281 283 286 290 292 291 291 291 292 293 294 294 294 294 294 293 291 291 287 277 272 266 265 267 269 273 269 267 270 270 267 270 265 263 263 263 265 265 264 264 265 269 270
280 284 286 288 289 290 290 291 293 295 296 297 298 295 293 290 290 292 291 288 282 277 276 274 275 276 280 283 285 282 278 277 272 266 264 264 262 263 264 264 265 266 269
283 286 289 293 295 296 298 300 301 301 302 302 301 301 300 299 298 299 295 291 289 285 278 277 280 281 283 285 286 289 289 284 282 276 265 265 264 264 263 264 264 266 266
284 285 286 287 288 292 296 298 299 299 298 296 297 297 296 295 296 296 294 289 286 286 288 288 288 282 280 281 283 284 285 286 286 285 281 268 262 267 268 266 265 265 266
286 286 288 291 293 296 298 299 301 303 304 303 302 300 297 290 285 290 296 296 292 287 283 284 287 288 291 292 289 283 281 283 285 286 287 283 275 265 265 266 265 264 264
283 283 286 287 291 292 294 300 309 315 320 318 311 304 305 299 295 295 297 298 296 295 295 291 290 291 290 290 289 290 291 290 288 287 286 285 282 276 268 265 264 266 267
275 280 284 286 285 286 289 293 302 312 328 337 337 323 311 296 295 288 292 303 306 307 304 302 305 306 303 298 293 293 294 294 293 294 293 288 287 283 278 273 269 265 264
272 273 274 269 264 266 274 281 286 297 312 321 328 332 334 335 330 318 322 329 327 325 325 319 317 311 301 292 288 288 290 294 291 288 291 290 289 288 284 280 277 272 268
268 270 267 260 262 268 271 273 278 284 293 299 307 317 325 330 331 332 337 345 349 350 345 338 335 329 326 321 311 295 286 282 284 291 292 286 287 287 287 285 283 281 278